TimeCDT,TemperatureF,Dew PointF,Humidity,Sea Level PressureIn,VisibilityMPH,Wind Direction,Wind SpeedMPH,Gust SpeedMPH,PrecipitationIn,Events,Conditions,WindDirDegrees,DateUTC
12:15 AM,68.4,53.1,58,29.99,10.0,East,3.5,-,N/A,,Clear,90,2012-10-03 05:15:00
12:35 AM,67.6,54.0,61,29.99,10.0,ESE,3.5,-,N/A,,Clear,120,2012-10-03 05:35:00
12:55 AM,66.9,53.1,61,30.00,10.0,South,3.5,-,N/A,,Clear,190,2012-10-03 05:55:00
1:15 AM,66.2,54.1,65,30.00,10.0,SSW,4.6,-,N/A,,Clear,210,2012-10-03 06:15:00
1:35 AM,65.3,55.2,70,30.00,10.0,South,4.6,-,N/A,,Clear,170,2012-10-03 06:35:00
1:55 AM,64.8,54.9,70,30.00,10.0,SSE,4.6,-,N/A,,Clear,160,2012-10-03 06:55:00
2:15 AM,64.4,54.0,69,29.99,10.0,South,5.8,-,N/A,,Clear,180,2012-10-03 07:15:00
2:35 AM,63.9,53.8,70,29.99,10.0,South,5.8,-,N/A,,Clear,180,2012-10-03 07:35:00
2:55 AM,63.9,53.6,69,29.99,10.0,South,5.8,-,N/A,,Clear,190,2012-10-03 07:55:00
3:15 AM,63.9,54.1,71,29.98,10.0,South,4.6,-,N/A,,Clear,180,2012-10-03 08:15:00
3:35 AM,63.9,55.6,74,29.98,10.0,South,4.6,-,N/A,,Clear,190,2012-10-03 08:35:00
4:15 AM,64.6,59.0,82,29.96,10.0,South,4.6,-,N/A,,Clear,170,2012-10-03 09:15:00
4:35 AM,65.3,60.3,84,29.97,10.0,South,4.6,-,N/A,,Clear,170,2012-10-03 09:35:00
4:55 AM,65.3,60.8,85,29.98,10.0,SSE,4.6,-,N/A,,Clear,160,2012-10-03 09:55:00
5:15 AM,64.9,60.8,86,29.98,10.0,SSE,4.6,-,N/A,,Clear,160,2012-10-03 10:15:00
5:55 AM,64.2,60.4,87,29.98,10.0,SSE,3.5,-,N/A,,Clear,160,2012-10-03 10:55:00
6:15 AM,63.9,60.4,89,29.98,10.0,SSE,4.6,-,N/A,,Clear,150,2012-10-03 11:15:00
6:35 AM,63.9,60.6,89,29.98,10.0,SE,3.5,-,N/A,,Clear,140,2012-10-03 11:35:00
6:55 AM,64.0,61.0,90,29.98,10.0,Calm,Calm,-,N/A,,Clear,0,2012-10-03 11:55:00
7:15 AM,63.9,60.6,89,29.99,10.0,Calm,Calm,-,N/A,,Clear,0,2012-10-03 12:15:00
7:35 AM,63.7,60.6,90,29.99,10.0,Calm,Calm,-,N/A,,Clear,0,2012-10-03 12:35:00
7:55 AM,64.4,61.0,89,29.99,10.0,Calm,Calm,-,N/A,,Clear,0,2012-10-03 12:55:00
8:15 AM,65.5,61.5,87,30.00,10.0,Calm,Calm,-,N/A,,Clear,0,2012-10-03 13:15:00
8:35 AM,67.1,62.4,85,30.00,10.0,Calm,Calm,-,N/A,,Clear,0,2012-10-03 13:35:00
8:55 AM,69.1,63.1,81,30.00,10.0,SE,5.8,-,N/A,,Clear,140,2012-10-03 13:55:00
9:15 AM,71.2,63.3,76,30.00,10.0,SE,8.1,-,N/A,,Clear,140,2012-10-03 14:15:00
9:35 AM,73.4,63.7,71,30.00,10.0,SE,8.1,-,N/A,,Clear,130,2012-10-03 14:35:00
9:55 AM,75.7,63.7,66,30.01,10.0,SE,12.7,-,N/A,,Clear,140,2012-10-03 14:55:00
10:15 AM,77.5,64.0,63,30.01,10.0,SE,13.8,-,N/A,,Clear,130,2012-10-03 15:15:00
10:35 AM,79.2,64.2,60,30.00,10.0,SE,12.7,-,N/A,,Clear,140,2012-10-03 15:35:00
10:55 AM,80.6,63.9,57,30.00,10.0,SSE,12.7,-,N/A,,Clear,150,2012-10-03 15:55:00
11:15 AM,81.5,63.1,54,30.00,10.0,SSE,16.1,21.9,N/A,,Clear,150,2012-10-03 16:15:00
11:35 AM,82.4,62.4,51,29.99,10.0,SE,15.0,19.6,N/A,,Clear,140,2012-10-03 16:35:00
11:55 AM,83.5,61.5,47,29.99,10.0,SSE,10.4,-,N/A,,Clear,150,2012-10-03 16:55:00
12:15 PM,84.6,61.3,45,29.99,10.0,South,15.0,-,N/A,,Clear,170,2012-10-03 17:15:00
12:55 PM,86.9,60.6,41,29.97,10.0,SSE,10.4,-,N/A,,Clear,150,2012-10-03 17:55:00
1:15 PM,87.4,59.9,39,29.96,10.0,SSE,10.4,19.6,N/A,,Clear,160,2012-10-03 18:15:00
1:35 PM,88.5,60.1,38,29.95,10.0,SSE,11.5,19.6,N/A,,Clear,150,2012-10-03 18:35:00
1:55 PM,89.1,60.3,38,29.94,10.0,SE,13.8,18.4,N/A,,Clear,140,2012-10-03 18:55:00
2:15 PM,89.8,59.2,36,29.93,10.0,SE,11.5,16.1,N/A,,Clear,140,2012-10-03 19:15:00
2:35 PM,90.3,58.5,34,29.93,10.0,SSE,11.5,-,N/A,,Clear,150,2012-10-03 19:35:00
2:55 PM,91.0,59.2,34,29.92,10.0,SE,11.5,17.3,N/A,,Clear,140,2012-10-03 19:55:00
3:15 PM,91.4,58.1,32,29.91,10.0,ESE,9.2,-,N/A,,Clear,120,2012-10-03 20:15:00
3:35 PM,91.8,57.7,32,29.91,10.0,SSE,11.5,17.3,N/A,,Clear,150,2012-10-03 20:35:00
3:55 PM,92.3,57.9,31,29.91,10.0,SE,9.2,-,N/A,,Clear,140,2012-10-03 20:55:00
4:15 PM,92.5,57.6,31,29.90,10.0,SE,10.4,-,N/A,,Clear,140,2012-10-03 21:15:00
4:35 PM,92.5,57.7,31,29.90,10.0,SSE,6.9,17.3,N/A,,Clear,150,2012-10-03 21:35:00
4:55 PM,92.7,57.9,31,29.90,10.0,SE,9.2,-,N/A,,Clear,130,2012-10-03 21:55:00
5:15 PM,92.8,57.2,30,29.91,10.0,SE,10.4,-,N/A,,Clear,130,2012-10-03 22:15:00
5:35 PM,92.5,57.2,30,29.91,10.0,SE,10.4,-,N/A,,Clear,140,2012-10-03 22:35:00
5:55 PM,92.3,57.4,31,29.91,10.0,SSE,10.4,-,N/A,,Clear,150,2012-10-03 22:55:00
6:15 PM,91.6,57.6,32,29.91,10.0,SE,8.1,-,N/A,,Clear,130,2012-10-03 23:15:00
6:35 PM,90.7,57.6,33,29.91,10.0,ESE,10.4,-,N/A,,Clear,120,2012-10-03 23:35:00
6:55 PM,89.2,58.5,35,29.91,10.0,SE,6.9,-,N/A,,Clear,130,2012-10-03 23:55:00
7:15 PM,87.6,58.6,37,29.92,10.0,SE,6.9,-,N/A,,Clear,130,2012-10-04 00:15:00
7:35 PM,86.2,60.4,42,29.92,10.0,East,10.4,-,N/A,,Clear,80,2012-10-04 00:35:00
8:15 PM,83.5,68.9,61,29.93,10.0,East,10.4,-,N/A,,Clear,90,2012-10-04 01:15:00
8:35 PM,82.4,69.1,64,29.94,10.0,East,9.2,-,N/A,,Clear,100,2012-10-04 01:35:00
8:55 PM,81.7,69.1,65,29.95,10.0,East,11.5,-,N/A,,Clear,90,2012-10-04 01:55:00
9:15 PM,80.8,68.7,67,29.96,10.0,East,9.2,-,N/A,,Clear,100,2012-10-04 02:15:00
9:35 PM,80.2,68.2,67,29.96,10.0,East,8.1,-,N/A,,Clear,100,2012-10-04 02:35:00
9:55 PM,79.3,68.2,69,29.97,10.0,ESE,6.9,-,N/A,,Clear,110,2012-10-04 02:55:00
10:15 PM,78.6,67.3,68,29.98,10.0,SE,9.2,-,N/A,,Clear,130,2012-10-04 03:15:00
10:35 PM,79.7,65.8,62,29.98,10.0,SE,11.5,18.4,N/A,,Clear,130,2012-10-04 03:35:00
10:55 PM,79.7,66.6,64,29.99,10.0,SE,12.7,-,N/A,,Clear,130,2012-10-04 03:55:00
11:15 PM,79.0,67.3,67,29.99,10.0,SE,12.7,17.3,N/A,,Clear,130,2012-10-04 04:15:00
11:35 PM,78.4,67.8,70,29.99,10.0,SE,11.5,-,N/A,,Clear,130,2012-10-04 04:35:00
11:55 PM,77.7,68.0,72,30.00,10.0,SE,11.5,-,N/A,,Clear,130,2012-10-04 04:55:00